星链-31402 (STARLINK-31402 )

导读 | 星芒AI

STARLINK-31402 是 SpaceX 星链计划中的一颗低轨通信卫星,属于星链第三代(Gen3)星座的一部分。该卫星于2024年发射,旨在为全球用户提供高速、低延迟的互联网服务。它运行在约550公里高的近地轨道,配备先进通信设备,支持宽带接入和全球覆盖。星链项目通过部署大量卫星,构建一个高效的全球网络,服务于偏远地区、企业和政府用户。STARLINK-31402 的加入进一步增强了星链网络的稳定性和服务能力。

基本信息
目录编号:
59320
目录名称:
STARLINK-31402
国际标识:
2024-057A
轨道中心:
EARTH
卫星名称:
星链-31402
卫星全名:
星链-31402 (STARLINK-31402 )
卫星状态:
在轨 (已飞行586 天)
发射日期:
2024-03-25 UTC
国别 :
美国 (US)
星等 :
--
轨道信息
数据来源 国际轨道数据
星历时间: 2025-11-01T04:01:54+0800
7小时前
查看轨道信息
半长轴: 6861.178km
偏心率: 0.0001489
轨道倾角: 43.000°
近地点辐角 263.841°
升交点赤经 147.166°
平近点角 96.227°
近地点: 482.021km
远地点: 484.065km
周期: 94.267分钟
每日圈数: 15.275829
详细信息
固有亮度:
5
最大亮度:
0.3
卫星平台:
Starlink v2.0 mini
覆盖范围:
全球
运营商:
太空探索技术公司
运营商所在国:
美国
制造商(研发单位):
太空探索技术公司
制造商所在国:
美国
使用方式:
暂无
卫星简介
星链(Starlink)计划是由太空探索技术公司(SpaceX)提出的一个巨型低轨卫星互联网星座项目,计划在2019年至2024年间在太空搭建由约1.2万颗卫星组成的“星链”网络,其中1584颗将部署在地球上空550千米处的近地轨道,并从2020年开始工作。该卫星仍在工作。
2D轨道图
3D轨道图
轨道高度分析图
轨道倾角分析图
轨道综合分析图
查看轨道综合分析图